On this page you'll find a flight plan, current NOTAMs, track on a map and charts showing progress of the flight. If progress is not visible, it means that the flight has not begun yet. Click on the airport or point icon on the map to get more information. This page is refreshed automatically when SATAvFDR sends data.

EPKT - LUPUX - TUSIN - HLV - MIKOV - LOWW
Distance between airports 173nmReal distance: 183nm
Change in route length due to wind: 0 nm (183nm)Suggested volume of fuel: 6283 kg with reserves
Wind (<hdg>@<kt>):
 
Map - Hide - Show procedures



AIRPORT CHARTS
  • EPKT, LOWW, LOWG

  • WEATHER
  • EPKT 212130Z VRB02KT CAVOK 11/09 Q1018
  • LOWW 212150Z 15005KT 9999 FEW070 BKN110 14/12 Q1018 NOSIG
  • LOWG 212150Z 05003KT 9999 FEW050 BKN060 BKN100 16/13 Q1018 NOSIG


  • PLAN
    CALLSIGN
    ACFT
    TAS
    DEPT
    DEST
    FL/ALT
     
    CSB033
    (033)
     
     
    B738
    SP-JUF
     
     
    430 kt
     
     
    EPKT
    12:33
     
     
    LOWW
    13:23
     
     
    240
     
    ROUTE
     
    LUPUX Z126 TUSIN M984 MIKOV
     
    ALTN
    ENROUTE/
    FUEL
    REMARKS
     
    LOWG
     
     
    00:50
    02:30
     
     
    /V RTF/CASHUBIAN REG/SP-JUF OPR/www.cassubian.pl
     

    AIRCRAFT SPECIFICATION
    ParameterValue ParameterValue ParameterValue
    ICAOB738 CategoryC Min. pilot degree2
    Empty weight41400 kg Max. Ramp Weight79242 kg Max Take Off Weight79010 kg
    Zero Fuel Weight62732 kg Max. Landing Weight66361 kg Min. fuel at landing3000 kg
    Flaps speed1:250 kt, 2:250 kt, 3:250 kt, 4:210 kt, 5:200 kt, 6:190 kt, 7:175 kt, 8:162 kt, Gear up/down speed235 / 270 kt Ceiling41000 ft
    VR125 - 156 kt V2125 - 164 kt Touchdown speed115 - 150 kt
    Max. cross wind (on t/o or landing)33 kt Max. head wind50 kt Max. tail wind15 kt
    Avg. cruising speed (TAS)430 kt Service airportsLFSB, KFLL, ZBAA, RegistrationsSP-DAS, SP-JUF, SP-ELB,
    For flight simulation only.